EW6058 Weather Reports


Display with metric or nautical units.
time (UTC)temp
F
wind
direction
speed
MPH
gust
MPH
rain 1hr
in
rain 24hr
in
rain mn
in
humidity
%
barometer
mb
20260506210022 61 165 3.0 5.0 0.00 0.00 0.00 80 1009.8
20260506205509 61 162 2.0 4.0 0.00 0.00 0.00 80 1009.7
20260506205005 61 174 2.0 4.0 0.00 0.00 0.00 79 1009.6
20260506204516 61 126 1.0 4.0 0.00 0.00 0.00 79 1009.7
20260506204009 61 141 2.0 5.0 0.00 0.00 0.00 80 1009.8
20260506203511 62 184 2.0 5.0 0.00 0.00 0.00 79 1009.8
20260506203021 62 119 2.0 4.0 0.00 0.00 0.00 78 1009.9
20260506202503 62 169 2.0 4.0 0.00 0.00 0.00 78 1010.0
20260506202004 62 154 1.0 6.0 0.00 0.00 0.00 78 1009.9
20260506201506 62 180 1.0 6.0 0.00 0.00 0.00 78 1009.9
20260506201003 62 160 2.0 6.0 0.00 0.00 0.00 78 1009.8
20260506200504 62 113 2.0 6.0 0.00 0.00 0.00 78 1010.1
20260506200010 62 127 1.0 5.0 0.00 0.00 0.00 78 1010.2
20260506195504 61 283 1.0 5.0 0.00 0.00 0.00 78 1010.1
20260506195005 61 156 2.0 4.0 0.00 0.00 0.00 77 1010.2
20260506194516 61 172 2.0 4.0 0.00 0.00 0.00 77 1010.3
20260506194008 61 126 2.0 6.0 0.00 0.00 0.00 77 1010.5
20260506193507 61 158 2.0 6.0 0.00 0.00 0.00 77 1010.4
20260506193032 61 150 2.0 4.0 0.00 0.00 0.00 77 1010.4
20260506192510 61 145 1.0 4.0 0.00 0.00 0.00 77 1010.4
20260506192010 62 191 1.0 4.0 0.00 0.00 0.00 77 1010.4
20260506191524 62 74 2.0 4.0 0.00 0.00 0.00 76 1010.6
20260506191003 62 146 2.0 4.0 0.00 0.00 0.00 76 1010.4
20260506190502 62 134 1.0 5.0 0.00 0.00 0.00 76 1010.4
20260506190007 62 184 2.0 5.0 0.00 0.00 0.00 76 1010.3
20260506185510 63 138 2.0 5.0 0.00 0.00 0.00 74 1010.4
20260506185006 63 170 2.0 5.0 0.00 0.00 0.00 74 1010.5
20260506184515 63 162 2.0 5.0 0.00 0.00 0.00 75 1010.7
20260506184006 63 184 2.0 5.0 0.00 0.00 0.00 75 1010.7
20260506183507 63 154 2.0 5.0 0.00 0.00 0.00 75 1011.0
20260506183018 63 205 2.0 5.0 0.00 0.00 0.00 74 1011.0
20260506182511 63 147 1.0 7.0 0.00 0.00 0.00 74 1011.1
20260506182006 63 167 1.0 7.0 0.00 0.00 0.00 74 1011.1
20260506181534 64 174 2.0 5.0 0.00 0.00 0.00 73 1011.3
20260506181008 64 156 1.0 8.0 0.00 0.00 0.00 73 1011.4
20260506180509 64 131 3.0 8.0 0.00 0.00 0.00 73 1011.5
20260506180026 65 157 3.0 8.0 0.00 0.00 0.00 71 1011.6
20260506175502 66 172 2.0 6.0 0.00 0.00 0.00 71 1011.6
20260506175003 66 169 2.0 8.0 0.00 0.00 0.00 70 1011.8
20260506174509 67 168 3.0 8.0 0.00 0.00 0.00 70 1011.8
20260506174003 67 172 2.0 6.0 0.00 0.00 0.00 70 1011.8
20260506173509 67 134 3.0 6.0 0.00 0.00 0.00 69 1011.7
20260506173016 67 139 2.0 6.0 0.00 0.00 0.00 70 1011.8
20260506172507 68 162 3.0 6.0 0.00 0.00 0.00 68 1011.7
20260506172011 68 198 2.0 7.0 0.00 0.00 0.00 68 1011.6
20260506171520 68 137 2.0 7.0 0.00 0.00 0.00 70 1011.8
20260506171011 67 161 3.0 7.0 0.00 0.00 0.00 70 1011.9
20260506170508 66 105 3.0 7.0 0.00 0.00 0.00 72 1011.9
20260506170028 65 178 2.0 7.0 0.00 0.00 0.00 73 1012.2
20260506165510 65 203 3.0 7.0 0.00 0.00 0.00 73 1012.4
20260506165009 65 136 2.0 8.0 0.00 0.00 0.00 73 1012.3
20260506164544 65 164 3.0 13.0 0.00 0.00 0.00 73 1012.4
20260506164006 65 179 3.0 13.0 0.00 0.00 0.00 73 1012.4
20260506163505 65 195 3.0 9.0 0.00 0.00 0.00 72 1012.4
20260506163014 66 200 4.0 9.0 0.00 0.00 0.00 71 1012.4
20260506162508 66 160 3.0 9.0 0.00 0.00 0.00 71 1012.7
20260506162010 66 158 3.0 9.0 0.00 0.00 0.00 71 1012.6
20260506161521 67 186 3.0 6.0 0.00 0.00 0.00 69 1012.7
20260506161010 68 159 3.0 7.0 0.00 0.00 0.00 68 1012.8
20260506160506 69 159 2.0 10.0 0.00 0.00 0.00 68 1012.6
20260506160020 68 141 2.0 10.0 0.00 0.00 0.00 69 1012.9
20260506155508 68 158 3.0 6.0 0.00 0.00 0.00 68 1012.8
20260506155010 68 170 3.0 5.0 0.00 0.00 0.00 69 1013.0
20260506154528 67 144 2.0 7.0 0.00 0.00 0.00 71 1013.1
20260506154009 67 206 3.0 7.0 0.00 0.00 0.00 69 1013.2
20260506153511 68 177 3.0 5.0 0.00 0.00 0.00 68 1013.3
20260506153027 68 145 2.0 6.0 0.00 0.00 0.00 69 1013.3
20260506152505 68 147 3.0 6.0 0.00 0.00 0.00 69 1013.5
20260506152006 67 133 3.0 6.0 0.00 0.00 0.00 70 1013.5
20260506151516 67 101 3.0 7.0 0.00 0.00 0.00 69 1013.4
20260506151009 67 172 3.0 7.0 0.00 0.00 0.00 69 1013.4
20260506150507 67 143 2.0 7.0 0.00 0.00 0.00 71 1013.4
20260506150018 66 137 3.0 7.0 0.00 0.00 0.00 71 1013.4
20260506145505 66 186 3.0 6.0 0.00 0.00 0.00 70 1013.3
20260506145012 66 186 3.0 7.0 0.00 0.00 0.00 71 1013.2
20260506144527 66 204 3.0 7.0 0.00 0.00 0.00 70 1013.2
20260506144013 66 158 2.0 7.0 0.00 0.00 0.00 72 1013.1
20260506143512 65 164 2.0 5.0 0.00 0.00 0.00 72 1013.1
20260506143025 65 157 3.0 5.0 0.00 0.00 0.00 72 1012.9
20260506142513 65 186 2.0 7.0 0.00 0.00 0.00 72 1012.9
20260506142009 66 148 2.0 8.0 0.00 0.00 0.00 71 1013.2
20260506141523 67 148 3.0 8.0 0.00 0.00 0.00 71 1013.2
20260506141007 67 99 3.0 6.0 0.00 0.00 0.00 69 1013.2
20260506140508 67 151 3.0 8.0 0.00 0.00 0.00 70 1013.2
20260506140016 67 202 3.0 8.0 0.00 0.00 0.00 70 1013.2
20260506135503 67 175 3.0 6.0 0.00 0.00 0.00 70 1013.4
20260506135003 67 155 2.0 6.0 0.00 0.00 0.00 70 1013.4
20260506134503 67 165 4.0 6.0 0.00 0.00 0.00 70 1013.3
20260506134004 67 159 3.0 7.0 0.00 0.00 0.00 71 1013.4
20260506133504 66 201 2.0 7.0 0.00 0.00 0.00 72 1013.3
20260506133006 66 184 3.0 6.0 0.00 0.00 0.00 72 1013.3
20260506132503 66 171 3.0 6.0 0.00 0.00 0.00 73 1013.2
20260506132003 65 146 2.0 7.0 0.00 0.00 0.00 73 1013.1
20260506131510 65 133 3.0 7.0 0.00 0.00 0.00 72 1013.3
20260506131006 65 121 2.0 7.0 0.00 0.00 0.00 73 1013.2
20260506130506 65 165 2.0 6.0 0.00 0.00 0.00 74 1013.3
20260506130013 64 170 2.0 6.0 0.00 0.00 0.00 76 1013.2
20260506125510 0 148 2.0 6.0 0.00 0.00 0.00 75 1013.2
20260506125007 63 173 3.0 6.0 0.00 0.00 0.00 75 1013.2
20260506124521 63 136 2.0 6.0 0.00 0.00 0.00 76 1013.4
20260506124003 63 181 2.0 7.0 0.00 0.00 0.00 78 1013.4
20260506123503 62 167 2.0 6.0 0.00 0.00 0.00 78 1013.4
20260506123006 62 107 2.0 6.0 0.00 0.00 0.00 79 1013.3
20260506122505 62 177 3.0 7.0 0.00 0.00 0.00 79 1013.3
20260506122005 62 167 2.0 7.0 0.00 0.00 0.00 80 1013.3
20260506121512 61 178 2.0 4.0 0.00 0.00 0.00 81 1013.2
20260506121004 61 191 2.0 5.0 0.00 0.00 0.00 81 1013.5
20260506120506 60 185 2.0 6.0 0.00 0.00 0.00 82 1013.6
20260506120025 60 157 3.0 6.0 0.00 0.00 0.00 83 1013.7
20260506115506 60 180 2.0 6.0 0.00 0.00 0.00 83 1013.7
20260506115005 60 157 3.0 5.0 0.00 0.00 0.00 83 1013.5
20260506114519 60 193 2.0 6.0 0.00 0.00 0.00 82 1013.5
20260506114007 60 159 3.0 6.0 0.00 0.00 0.00 82 1013.7
20260506113511 60 174 3.0 5.0 0.00 0.00 0.00 83 1013.7
20260506113022 60 162 3.0 7.0 0.00 0.00 0.00 83 1013.7
20260506112503 60 152 3.0 8.0 0.00 0.00 0.00 83 1013.7
20260506112003 60 152 2.0 8.0 0.00 0.00 0.00 84 1013.6
20260506111507 59 160 3.0 8.0 0.00 0.00 0.00 84 1013.6
20260506111003 59 169 1.0 6.0 0.00 0.00 0.00 85 1013.5
20260506110504 59 162 2.0 5.0 0.00 0.00 0.00 85 1013.6
20260506110010 59 157 2.0 5.0 0.00 0.00 0.00 86 1013.6
20260506105503 58 184 2.0 5.0 0.00 0.00 0.00 86 1013.7
20260506105006 58 174 2.0 6.0 0.00 0.00 0.00 86 1013.5
20260506104526 58 165 1.0 6.0 0.00 0.00 0.00 86 1013.5
20260506104011 58 194 2.0 4.0 0.00 0.00 0.00 87 1013.5
20260506103508 58 155 1.0 4.0 0.00 0.00 0.00 87 1013.6
20260506103036 58 200 2.0 4.0 0.00 0.00 0.00 88 1013.6
20260506102515 57 187 2.0 6.0 0.00 0.00 0.00 88 1013.6
20260506102011 57 188 3.0 6.0 0.00 0.00 0.00 88 1013.5
20260506101525 57 154 2.0 5.0 0.00 0.00 0.00 89 1013.6
20260506101003 57 159 1.0 5.0 0.00 0.00 0.00 89 1013.5
20260506100502 56 143 2.0 5.0 0.00 0.00 0.00 89 1013.4
20260506100007 56 147 2.0 4.0 0.00 0.00 0.00 89 1013.3
20260506095505 56 188 2.0 4.0 0.00 0.00 0.00 89 1013.4
20260506095004 56 136 2.0 4.0 0.00 0.00 0.00 89 1013.4
20260506094511 56 174 2.0 4.0 0.00 0.00 0.00 89 1013.3
20260506094006 56 166 1.0 4.0 0.00 0.00 0.00 89 1013.3
20260506093508 56 139 2.0 6.0 0.00 0.00 0.00 89 1013.4
20260506093020 56 221 2.0 6.0 0.00 0.00 0.00 89 1013.5
20260506092508 56 172 2.0 6.0 0.00 0.00 0.00 89 1013.7
20260506092011 56 200 1.0 5.0 0.00 0.00 0.00 90 1013.6
20260506091522 56 155 1.0 4.0 0.00 0.00 0.00 90 1013.6
20260506091010 56 178 2.0 5.0 0.00 0.00 0.00 90 1013.5
20260506090509 56 180 3.0 5.0 0.00 0.00 0.00 90 1013.6
20260506090024 56 179 2.0 5.0 0.00 0.00 0.00 90 1013.4
20260506085503 56 184 1.0 5.0 0.00 0.00 0.00 91 1013.6
20260506085005 56 167 1.0 5.0 0.00 0.00 0.00 91 1013.7
20260506084511 56 141 1.0 3.0 0.00 0.00 0.00 91 1013.9
20260506084006 55 213 1.0 3.0 0.00 0.00 0.00 90 1013.8
20260506083506 56 137 1.0 3.0 0.00 0.00 0.00 90 1013.8
20260506083013 56 172 1.0 7.0 0.00 0.00 0.00 90 1013.7
20260506082508 56 168 2.0 7.0 0.00 0.00 0.00 90 1013.8
20260506082004 55 206 1.0 4.0 0.00 0.00 0.00 90 1013.8
20260506081527 55 200 2.0 4.0 0.00 0.00 0.00 90 1013.9
20260506081010 56 176 1.0 3.0 0.00 0.00 0.00 90 1014.0
20260506080509 56 161 2.0 5.0 0.00 0.00 0.00 90 1013.9
20260506073507 56 181 2.0 5.0 0.00 0.00 0.00 90 1013.8
20260506073010 56 195 2.0 5.0 0.00 0.00 0.00 90 1013.8
20260506072507 56 226 2.0 5.0 0.00 0.00 0.00 90 1013.7
20260506072010 56 176 2.0 5.0 0.00 0.00 0.00 91 1013.9
20260506071519 56 175 1.0 4.0 0.00 0.00 0.00 91 1013.8
20260506071009 56 185 2.0 4.0 0.00 0.00 0.00 91 1013.8
20260506070506 56 210 1.0 4.0 0.00 0.00 0.00 90 1013.8
20260506062506 55 145 2.0 3.0 0.00 0.00 0.00 90 1013.7
20260506062007 56 193 1.0 4.0 0.00 0.00 0.00 90 1013.7
20260506061514 56 175 1.0 5.0 0.00 0.00 0.00 89 1013.8
20260506061006 56 215 2.0 5.0 0.00 0.00 0.00 89 1013.9
20260506060505 56 157 2.0 4.0 0.00 0.00 0.00 89 1014.0
20260506051010 56 160 2.0 4.0 0.00 0.00 0.00 88 1014.3
20260506050507 56 166 2.0 4.0 0.00 0.00 0.00 88 1014.3
20260506045002 56 180 2.0 6.0 0.00 0.00 0.00 87 1014.3
20260506044504 56 174 2.0 5.0 0.00 0.00 0.00 87 1014.2
20260506044004 56 162 2.0 6.0 0.00 0.00 0.00 87 1014.2
20260506043505 56 174 1.0 6.0 0.00 0.00 0.00 87 1014.3
20260506043006 56 150 2.0 5.0 0.00 0.00 0.00 87 1014.4
20260506042504 56 147 1.0 5.0 0.00 0.00 0.00 87 1014.3
20260506042006 56 226 1.0 5.0 0.00 0.00 0.00 87 1014.3
20260506041508 56 184 2.0 7.0 0.00 0.00 0.00 87 1014.3
20260506041006 56 134 2.0 7.0 0.00 0.00 0.00 87 1014.2
20260506040505 56 145 2.0 6.0 0.00 0.00 0.00 87 1014.3
20260506040013 56 264 2.0 6.0 0.00 0.00 0.00 87 1014.3
20260506035508 56 102 2.0 5.0 0.00 0.00 0.00 86 1014.4
20260506035007 56 162 1.0 6.0 0.00 0.00 0.00 86 1014.4
20260506034517 56 167 2.0 6.0 0.00 0.00 0.00 86 1014.5
20260506034004 56 178 3.0 6.0 0.00 0.00 0.00 86 1014.3
20260506033504 57 174 2.0 6.0 0.00 0.00 0.00 85 1014.1
20260506033007 57 174 2.0 6.0 0.00 0.00 0.00 85 1014.3
20260506032503 57 172 2.0 6.0 0.00 0.00 0.00 85 1014.2
20260506032003 57 184 2.0 6.0 0.00 0.00 0.00 85 1014.1
20260506031503 57 174 2.0 5.0 0.00 0.00 0.00 85 1014.0
20260506031003 57 202 3.0 5.0 0.00 0.00 0.00 85 1014.0
20260506030505 57 165 2.0 5.0 0.00 0.00 0.00 84 1014.0
20260506030012 57 160 3.0 6.0 0.00 0.00 0.00 84 1013.8
20260506025503 57 162 3.0 6.0 0.00 0.00 0.00 84 1013.9
20260506025010 57 183 2.0 4.0 0.00 0.00 0.00 84 1013.9
20260506024514 57 172 2.0 5.0 0.00 0.00 0.00 84 1013.9
20260506024008 56 196 3.0 5.0 0.00 0.00 0.00 84 1013.9
20260506023508 56 205 2.0 3.0 0.00 0.00 0.00 84 1013.9
20260506023035 56 168 1.0 4.0 0.00 0.00 0.00 84 1014.0
20260506022503 56 191 2.0 4.0 0.00 0.00 0.00 84 1014.1
20260506022003 56 179 2.0 7.0 0.00 0.00 0.00 84 1014.0
20260506021503 56 160 3.0 7.0 0.00 0.00 0.00 84 1014.0
20260506021004 56 226 2.0 6.0 0.00 0.00 0.00 84 1014.1
20260506020503 56 179 2.0 6.0 0.00 0.00 0.00 83 1014.1
20260506020008 56 173 3.0 6.0 0.00 0.00 0.00 84 1014.0
20260506015503 55 184 2.0 5.0 0.00 0.00 0.00 83 1014.1
20260506015004 55 164 1.0 4.0 0.00 0.00 0.00 83 1014.0
20260506014518 55 221 2.0 4.0 0.00 0.00 0.00 83 1014.0
20260506014003 55 163 2.0 4.0 0.00 0.00 0.00 83 1014.1
20260506013507 55 180 1.0 4.0 0.00 0.00 0.00 82 1014.1
20260506013024 55 184 1.0 5.0 0.00 0.00 0.00 81 1014.1
20260506012508 55 166 1.0 5.0 0.00 0.00 0.00 81 1014.1
20260506012008 55 176 1.0 5.0 0.00 0.00 0.00 81 1014.0
20260506011521 55 174 1.0 5.0 0.00 0.00 0.00 80 1014.0
20260506011004 55 176 1.0 3.0 0.00 0.00 0.00 80 1014.0
20260506010504 55 174 1.0 3.0 0.00 0.00 0.00 79 1013.9
20260506010004 55 178 2.0 3.0 0.00 0.00 0.00 79 1013.8
20260506005503 56 180 1.0 4.0 0.00 0.00 0.00 78 1013.8
20260506005004 56 173 2.0 5.0 0.00 0.00 0.00 77 1013.7
20260506004511 56 147 2.0 5.0 0.00 0.00 0.00 77 1013.4
20260506004006 56 177 2.0 5.0 0.00 0.00 0.00 77 1013.1
20260506003508 55 195 2.0 5.0 0.00 0.00 0.00 77 1012.9
20260506003016 55 177 1.0 5.0 0.00 0.00 0.00 77 1012.8
20260506002506 55 164 1.0 5.0 0.00 0.00 0.00 76 1012.7
20260506002006 55 169 2.0 4.0 0.00 0.00 0.00 76 1012.6
20260506001520 55 158 2.0 4.0 0.00 0.00 0.00 76 1012.5
20260506001008 55 153 2.0 4.0 0.00 0.00 0.00 77 1012.4
20260506000509 55 148 2.0 4.0 0.00 0.00 0.00 77 1012.5
20260506000024 55 190 1.0 4.0 0.00 0.00 0.00 77 1012.4
20260505235505 56 167 1.0 5.0 0.00 0.00 0.00 77 1012.7
20260505235005 56 152 1.0 5.0 0.00 0.00 0.00 77 1012.7
20260505234508 56 146 1.0 4.0 0.00 0.00 0.00 77 1012.7
20260505234004 56 158 2.0 6.0 0.00 0.00 0.00 77 1012.7
20260505233508 56 163 2.0 6.0 0.00 0.00 0.00 78 1012.7
20260505233011 56 150 1.0 4.0 0.00 0.00 0.00 78 1012.5
20260505232508 56 215 2.0 4.0 0.00 0.00 0.00 78 1012.4
20260505232006 56 162 2.0 6.0 0.00 0.00 0.00 78 1012.5
20260505231534 56 205 2.0 6.0 0.00 0.00 0.00 79 1012.3
20260505231008 56 186 1.0 7.0 0.00 0.00 0.00 79 1012.2
20260505230508 56 158 2.0 7.0 0.00 0.00 0.00 79 1012.1
20260505230026 56 147 3.0 6.0 0.00 0.00 0.00 79 1012.0
20260505225511 57 148 1.0 6.0 0.00 0.00 0.00 79 1012.1
20260505225009 57 172 2.0 6.0 0.00 0.00 0.00 79 1012.1
20260505224524 57 167 3.0 6.0 0.00 0.00 0.00 79 1012.1
20260505224003 57 191 3.0 6.0 0.00 0.00 0.00 78 1012.0
20260505223505 57 214 1.0 4.0 0.00 0.00 0.00 78 1011.9
20260505223007 58 172 2.0 7.0 0.00 0.00 0.00 78 1011.9
20260505222507 58 262 3.0 7.0 0.00 0.00 0.00 78 1011.8
20260505222008 58 151 3.0 6.0 0.00 0.00 0.00 77 1011.8
20260505221514 58 173 2.0 5.0 0.00 0.00 0.00 78 1011.8
20260505221007 58 148 2.0 5.0 0.00 0.00 0.00 77 1011.9
20260505220504 58 177 2.0 4.0 0.00 0.00 0.00 77 1011.8
20260505220024 58 191 1.0 7.0 0.00 0.00 0.00 77 1011.8
20260505215508 59 173 2.0 7.0 0.00 0.00 0.00 76 1011.9
20260505215007 59 180 3.0 6.0 0.00 0.00 0.00 76 1012.0
20260505214525 59 91 2.0 7.0 0.00 0.00 0.00 76 1012.0
20260505214013 59 160 3.0 7.0 0.00 0.00 0.00 75 1011.9
20260505213510 59 176 3.0 7.0 0.00 0.00 0.00 75 1012.0
20260505213034 59 58 2.0 7.0 0.00 0.00 0.00 75 1011.6
20260505212508 59 167 2.0 7.0 0.00 0.00 0.00 75 1011.7
20260505212007 59 138 2.0 6.0 0.00 0.00 0.00 75 1011.9
20260505211512 59 187 2.0 6.0 0.00 0.00 0.00 74 1011.7
20260505211007 60 149 2.0 6.0 0.00 0.00 0.00 74 1011.8
20260505210506 60 170 3.0 8.0 0.00 0.00 0.00 73 1011.6